Weather History for Lakeland Region, FL

Change the Weather History Date:

Tuesday, July 30, 2013

  Actual Average Record
Temperature  
Mean Temperature 84 °F -  
Max Temperature 95 °F 88 °F 98 °F (2011)
Min Temperature 73 °F 71 °F 71 °F (2000)
Cooling Degree Days 19    
Growing Degree Days 34 (Base 50)    
Moisture  
Dew Point 71 °F    
Average Humidity 79    
Maximum Humidity 94    
Minimum Humidity 36    
Precipitation  
Precipitation 0.00 in - - ()
Sea Level Pressure  
Sea Level Pressure 30.15 in    
Wind  
Wind Speed 1 mph (ESE)    
Max Wind Speed 12 mph    
Max Gust Speed 17 mph    
Visibility 12 miles    
Events Rain    
Averages and records for this station are not official NWS values.
T = Trace of Precipitation, MM = Missing Value Source: NWS Daily Summary

Daily Weather History Graph

Daily Weather History Graph

Search for Another Location

Airport:

Trip Planner

Search our weather history database for the weather conditions in past years. The results will help you decide how hot, cold, wet, or windy it might be!

Date:

Astronomy

Jul. 30, 2013 Rise Set
Actual Time 6:49 AM EDT 8:18 PM EDT
Civil Twilight 6:24 AM EDT 8:44 PM EDT
Nautical Twilight 5:53 AM EDT 9:14 PM EDT
Astronomical Twilight 5:22 AM EDT 9:46 PM EDT
Moon 1:02 AM EDT (7/30) 2:39 PM EDT (7/30)
Length of Visible Light 14h 20m
Length of Day
13h 29m
Last Quarter, 41% of the Moon is Illuminated
Jul 30
Last Quarter
Aug 6
New
Aug 14
First Quarter
Aug 20
Full
Aug 28
Last Quarter

Hourly Weather History & Observations

Time (EDT) Temp. Heat Index Dew Point Humidity Pressure Visibility Wind Dir Wind Speed Gust Speed Precip Events Conditions
12:15 AM 77.0 °F - 69.8 °F 78% 30.18 in 10.0 mi Calm Calm - N/A   Clear
12:35 AM 75.2 °F - 69.8 °F 83% 30.18 in 10.0 mi Calm Calm - N/A   Clear
12:55 AM 77.0 °F - 69.8 °F 78% 30.17 in 10.0 mi ESE 3.5 mph - N/A   Clear
1:15 AM 75.2 °F - 69.8 °F 83% 30.17 in 10.0 mi Calm Calm - N/A   Clear
1:35 AM 75.2 °F - 69.8 °F 83% 30.17 in 10.0 mi Calm Calm - N/A   Clear
1:55 AM 75.2 °F - 71.6 °F 89% 30.16 in 10.0 mi Calm Calm - N/A   Clear
2:15 AM 75.2 °F - 71.6 °F 89% 30.16 in 10.0 mi Calm Calm - N/A   Clear
2:35 AM 75.2 °F - 71.6 °F 89% 30.16 in 10.0 mi NNW 3.5 mph - N/A   Clear
2:55 AM 75.2 °F - 71.6 °F 89% 30.16 in 10.0 mi Calm Calm - N/A   Clear
3:15 AM 73.4 °F - 71.6 °F 94% 30.15 in 10.0 mi Calm Calm - N/A   Clear
3:35 AM 73.4 °F - 71.6 °F 94% 30.14 in 10.0 mi Calm Calm - N/A   Clear
3:55 AM 73.4 °F - 71.6 °F 94% 30.14 in 10.0 mi Calm Calm - N/A   Clear
4:15 AM 73.4 °F - 71.6 °F 94% 30.14 in 10.0 mi Calm Calm - N/A   Clear
4:35 AM 73.4 °F - 71.6 °F 94% 30.14 in 10.0 mi Calm Calm - N/A   Clear
4:55 AM 73.4 °F - 71.6 °F 94% 30.13 in 10.0 mi Calm Calm - N/A   Clear
5:15 AM 73.4 °F - 71.6 °F 94% 30.13 in 10.0 mi Calm Calm - N/A   Clear
5:35 AM 73.4 °F - 71.6 °F 94% 30.14 in 10.0 mi Calm Calm - N/A   Clear
5:55 AM 73.4 °F - 71.6 °F 94% 30.14 in 10.0 mi Calm Calm - N/A   Clear
6:15 AM 73.4 °F - 71.6 °F 94% 30.15 in 10.0 mi Calm Calm - N/A   Clear
6:35 AM 73.4 °F - 71.6 °F 94% 30.15 in 10.0 mi Calm Calm - N/A   Clear
6:50 AM 75.2 °F - 71.6 °F 89% 30.16 in 7.0 mi Calm Calm - N/A   Partly Cloudy
8:57 AM 80.6 °F 86.2 °F 75.2 °F 84% 30.18 in 12.0 mi Calm Calm - N/A   Mostly Cloudy
8:58 AM 78.8 °F - 75.2 °F 89% 30.17 in 10.0 mi Calm Calm - N/A   Partly Cloudy
9:57 AM 82.4 °F 88.2 °F 73.4 °F 74% 30.19 in 15.0 mi Calm Calm - N/A   Mostly Cloudy
10:56 AM 84.2 °F 88.4 °F 69.8 °F 62% 30.20 in 15.0 mi Calm Calm - N/A   Mostly Cloudy
11:50 AM 89.6 °F 96.2 °F 71.6 °F 55% 30.19 in 15.0 mi Calm Calm - N/A   Mostly Cloudy
12:50 PM 89.6 °F 94.7 °F 69.8 °F 52% 30.18 in 15.0 mi ESE 8.1 mph - N/A   Mostly Cloudy
1:50 PM 91.4 °F 96.8 °F 69.8 °F 49% 30.16 in 15.0 mi East 5.8 mph - N/A   Mostly Cloudy
2:50 PM 93.2 °F 96.2 °F 66.2 °F 41% 30.14 in 15.0 mi SE 8.1 mph - N/A   Scattered Clouds
3:55 PM 93.2 °F 96.2 °F 66.2 °F 41% 30.11 in 15.0 mi East 8.1 mph - N/A   Mostly Cloudy
4:50 PM 95.0 °F 97.0 °F 64.4 °F 36% 30.09 in 15.0 mi East 9.2 mph - N/A   Mostly Cloudy
5:58 PM 91.4 °F 98.4 °F 71.6 °F 52% 30.10 in 15.0 mi SE 11.5 mph 17.3 mph N/A   Mostly Cloudy
6:50 PM 78.8 °F - 69.8 °F 74% 30.11 in 15.0 mi SSE 11.5 mph - N/A Rain Light Rain
7:50 PM 78.8 °F - 71.6 °F 78% 30.11 in 20.0 mi ESE 3.5 mph - N/A   Mostly Cloudy
8:50 PM 80.6 °F 85.4 °F 73.4 °F 79% 30.12 in 20.0 mi Calm Calm - N/A   Mostly Cloudy
9:50 PM 80.6 °F 86.2 °F 75.2 °F 84% 30.15 in 20.0 mi Calm Calm - N/A   Mostly Cloudy
10:55 PM 78.8 °F - 73.4 °F 83% 30.16 in 10.0 mi West 3.5 mph - N/A   Scattered Clouds
11:15 PM 78.8 °F - 73.4 °F 83% 30.16 in 10.0 mi Calm Calm - N/A   Clear
11:35 PM 78.8 °F - 73.4 °F 83% 30.17 in 10.0 mi North 3.5 mph - N/A   Scattered Clouds
11:55 PM 78.8 °F - 71.6 °F 78% 30.16 in 10.0 mi Calm Calm - N/A   Mostly Cloudy